Terminal Aerodrome Forecast
Issued by NWS

Home | Current Version | Previous Version | Text Only | Print | Product List | Glossary On
Versions: 1 2 3 4 5 6 7 8 9 10 11 12 13 14 15 16 17 18 19 20
000
FTUS44 KEWX 231700 RRA
TAFSSF
TAF
KSSF 231746Z 2318/2418 24012G22KT P6SM FEW250
     FM232300 25005KT P6SM SCT250
     FM240500 33014G24KT P6SM SCT250
     FM241100 32010KT P6SM SCT200=

USA.gov is the U.S. government's official web portal to all federal, state and local government web resources and services.